Date,TemperatureHighF,TemperatureAvgF,TemperatureLowF,DewpointHighF,DewpointAvgF,DewpointLowF,HumidityHigh,HumidityAvg,HumidityLow,PressureMaxIn,PressureMinIn,WindSpeedMaxMPH,WindSpeedAvgMPH,GustSpeedMaxMPH,PrecipitationSumIn
2013-5-1,32,24,12,31,21,9,95,89,73,22.90,22.50,0,0,21,0.00
2013-5-2,34,24,4,28,16,1,91,74,51,22.98,22.81,5,1,21,0.48
2013-5-3,53,41,28,29,20,11,75,46,22,22.81,22.61,6,2,21,0.12
2013-5-4,48,37,25,29,25,22,90,65,38,22.65,22.63,5,2,21,0.00
2013-5-5,51,43,36,35,30,21,92,63,39,22.66,22.59,6,2,21,0.02
2013-5-6,56,44,29,37,32,28,96,66,37,22.63,22.52,6,2,21,0.01
2013-5-7,62,47,33,37,31,26,86,55,29,22.58,22.49,11,3,21,0.00
2013-5-8,55,39,31,38,33,28,95,80,42,22.65,22.55,6,1,21,0.68
2013-5-9,48,37,31,40,34,29,96,89,63,22.73,22.64,5,0,21,0.72
2013-5-10,58,43,29,40,31,23,96,67,26,22.84,22.71,6,1,21,0.01
2013-5-11,62,45,30,39,32,26,93,65,26,22.89,22.77,10,2,21,0.01
2013-5-12,70,56,38,35,30,25,79,41,21,22.83,22.72,6,2,21,0.00
2013-5-13,75,63,47,38,32,28,66,33,18,22.79,22.69,8,3,21,0.00
2013-5-14,74,62,45,38,34,28,69,36,21,22.69,22.60,10,4,21,0.00
2013-5-15,67,54,43,42,37,32,84,55,28,22.62,22.57,7,2,21,0.00
2013-5-16,70,57,43,40,34,25,86,45,19,22.57,22.49,15,4,23,0.00
2013-5-17,73,58,37,40,26,14,83,38,12,22.54,22.46,9,3,21,0.00
2013-5-18,62,52,42,41,27,16,80,40,20,22.53,22.44,13,3,21,0.10
2013-5-19,57,48,43,30,27,23,56,44,28,22.48,22.40,11,6,22,0.00
2013-5-20,55,47,40,36,29,22,79,51,36,22.58,22.44,8,4,21,0.00
2013-5-21,59,48,38,29,24,17,59,40,25,22.58,22.50,9,4,21,0.00
2013-5-22,64,50,32,44,33,22,91,56,21,22.64,22.51,7,2,21,0.10
2013-5-23,58,49,42,47,43,41,95,82,64,22.64,22.57,6,2,21,0.02
2013-5-24,72,56,36,43,33,18,96,51,13,22.63,22.55,7,2,21,0.00
2013-5-25,74,58,36,38,26,8,88,39,8,22.62,22.55,8,2,21,0.00
2013-5-26,74,58,44,32,25,12,54,31,10,22.59,22.55,8,2,21,0.00
2013-5-27,69,59,43,31,21,10,57,24,14,22.54,22.43,10,3,21,0.00
2013-5-28,67,54,34,41,29,19,73,42,17,22.47,22.30,8,2,21,0.00
2013-5-29,56,46,40,40,33,27,91,61,37,22.36,22.26,15,5,23,0.16
2013-5-30,54,46,41,30,25,18,66,44,25,22.46,22.30,19,10,32,0.00
2013-5-31,57,49,40,21,17,11,42,28,19,22.59,22.43,17,8,33,0.00